Вернуться в каталог

NOAA 17

АктивенПогодаSSO
NORAD 27453·PAYLOAD·🇺🇸 United States

Запущен Jun 24, 2002 с Vandenberg Space Force Base

Loading…

Ближайшие Пролёты (ближайшие 24 часа)

TLE

СвежийSource: Space-Track

Эпоха: Sep 14, 2026, 14:26 UTC

1 27453U 02032A   26257.60155203  .00000076  00000-0  50634-4 0  9997
2 27453  98.8766 224.5099 0012701  92.1157 268.1477 14.26266109259732

Отслеживайте NOAA 17 в реальном времени с AllMySat

Download on the App Store